Year,Month,Day,Hour,Minute,Value (Times are PST for temperature in C)
2017,06,25,00,00,20.10
2017,06,25,00,01,20.10
2017,06,25,00,02,20.00
2017,06,25,00,03,20.10
2017,06,25,00,04,20.10
2017,06,25,00,05,20.10
2017,06,25,00,06,20.10
2017,06,25,00,07,20.10
2017,06,25,00,08,20.10
2017,06,25,00,09,20.00
2017,06,25,00,10,20.00
2017,06,25,00,11,20.00
2017,06,25,00,12,20.00
2017,06,25,00,13,20.10
2017,06,25,00,14,20.10
2017,06,25,00,15,20.10
2017,06,25,00,16,20.10
2017,06,25,00,17,20.00
2017,06,25,00,18,20.00
2017,06,25,00,19,20.00
2017,06,25,00,20,20.00
2017,06,25,00,21,19.90
2017,06,25,00,22,19.90
2017,06,25,00,23,19.90
2017,06,25,00,24,19.90
2017,06,25,00,25,19.90
2017,06,25,00,26,19.90
2017,06,25,00,27,19.90
2017,06,25,00,28,19.90
2017,06,25,00,29,19.90
2017,06,25,00,30,19.90
2017,06,25,00,31,19.90
2017,06,25,00,32,19.90
2017,06,25,00,33,19.90
2017,06,25,00,34,19.90
2017,06,25,00,35,19.90
2017,06,25,00,36,19.90
2017,06,25,00,37,19.90
2017,06,25,00,38,19.90
2017,06,25,00,39,19.90
2017,06,25,00,40,19.80
2017,06,25,00,41,19.80
2017,06,25,00,42,19.80
2017,06,25,00,43,19.70
2017,06,25,00,44,19.60
2017,06,25,00,45,19.50
2017,06,25,00,46,19.50
2017,06,25,00,47,19.40
2017,06,25,00,48,19.30
2017,06,25,00,49,19.20
2017,06,25,00,50,19.10
2017,06,25,00,51,18.90
2017,06,25,00,52,18.90
2017,06,25,00,53,18.80
2017,06,25,00,54,18.70
2017,06,25,00,55,18.60
2017,06,25,00,56,18.60
2017,06,25,00,57,18.60
2017,06,25,00,58,18.60
2017,06,25,00,59,18.60
2017,06,25,01,00,18.60
2017,06,25,01,01,18.60
2017,06,25,01,02,18.60
2017,06,25,01,03,18.60
2017,06,25,01,04,18.60
2017,06,25,01,05,18.60
2017,06,25,01,06,18.60
2017,06,25,01,07,18.50
2017,06,25,01,08,18.40
2017,06,25,01,09,18.40
2017,06,25,01,10,18.30
2017,06,25,01,11,18.20
2017,06,25,01,12,18.10
2017,06,25,01,13,18.00
2017,06,25,01,14,17.90
2017,06,25,01,15,17.80
2017,06,25,01,16,17.80
2017,06,25,01,17,17.80
2017,06,25,01,18,17.80
2017,06,25,01,19,17.90
2017,06,25,01,20,17.90
2017,06,25,01,21,17.90
2017,06,25,01,22,17.90
2017,06,25,01,23,17.90
2017,06,25,01,24,17.80
2017,06,25,01,25,17.80
2017,06,25,01,26,17.70
2017,06,25,01,27,17.70
2017,06,25,01,28,17.70
2017,06,25,01,29,17.70
2017,06,25,01,30,17.70
2017,06,25,01,31,17.70
2017,06,25,01,32,17.70
2017,06,25,01,33,17.70
2017,06,25,01,34,17.70
2017,06,25,01,35,17.60
2017,06,25,01,36,17.60
2017,06,25,01,37,17.50
2017,06,25,01,38,17.40
2017,06,25,01,39,17.40
2017,06,25,01,40,17.30
2017,06,25,01,41,17.30
2017,06,25,01,42,17.20
2017,06,25,01,43,17.20
2017,06,25,01,44,17.20
2017,06,25,01,45,17.10
2017,06,25,01,46,17.10
2017,06,25,01,47,17.00
2017,06,25,01,48,17.00
2017,06,25,01,49,16.90
2017,06,25,01,50,16.80
2017,06,25,01,51,16.80
2017,06,25,01,52,16.80
2017,06,25,01,53,16.70
2017,06,25,01,54,16.70
2017,06,25,01,55,16.70
2017,06,25,01,56,16.70
2017,06,25,01,57,16.70
2017,06,25,01,58,16.70
2017,06,25,01,59,16.70
2017,06,25,02,00,16.70
2017,06,25,02,01,16.70
2017,06,25,02,02,16.70
2017,06,25,02,03,16.80
2017,06,25,02,04,16.80
2017,06,25,02,05,16.90
2017,06,25,02,06,17.00
2017,06,25,02,07,17.10
2017,06,25,02,08,17.10
2017,06,25,02,09,17.10
2017,06,25,02,10,17.10
2017,06,25,02,11,17.10
2017,06,25,02,12,17.10
2017,06,25,02,13,17.10
2017,06,25,02,14,17.10
2017,06,25,02,15,17.10
2017,06,25,02,16,17.10
2017,06,25,02,17,17.10
2017,06,25,02,18,17.00
2017,06,25,02,19,16.90
2017,06,25,02,20,16.80
2017,06,25,02,21,16.60
2017,06,25,02,22,16.50
2017,06,25,02,23,16.40
2017,06,25,02,24,16.30
2017,06,25,02,25,16.30
2017,06,25,02,26,16.30
2017,06,25,02,27,16.30
2017,06,25,02,28,16.30
2017,06,25,02,29,16.40
2017,06,25,02,30,16.40
2017,06,25,02,31,16.50
2017,06,25,02,32,16.60
2017,06,25,02,33,16.60
2017,06,25,02,34,16.70
2017,06,25,02,35,16.80
2017,06,25,02,36,16.80
2017,06,25,02,37,16.90
2017,06,25,02,38,17.00
2017,06,25,02,39,17.10
2017,06,25,02,40,17.10
2017,06,25,02,41,17.20
2017,06,25,02,42,17.30
2017,06,25,02,43,17.40
2017,06,25,02,44,17.50
2017,06,25,02,45,17.60
2017,06,25,02,46,17.60
2017,06,25,02,47,17.70
2017,06,25,02,48,17.80
2017,06,25,02,49,18.00
2017,06,25,02,50,18.10
2017,06,25,02,51,18.10
2017,06,25,02,52,18.10
2017,06,25,02,53,18.10
2017,06,25,02,54,18.10
2017,06,25,02,55,18.10
2017,06,25,02,56,18.00
2017,06,25,02,57,18.00
2017,06,25,02,58,17.90
2017,06,25,02,59,17.90
2017,06,25,03,00,17.80
2017,06,25,03,01,17.80
2017,06,25,03,02,17.80
2017,06,25,03,03,17.80
2017,06,25,03,04,17.70
2017,06,25,03,05,17.70
2017,06,25,03,06,17.60
2017,06,25,03,07,17.60
2017,06,25,03,08,17.60
2017,06,25,03,09,17.50
2017,06,25,03,10,17.50
2017,06,25,03,11,17.50
2017,06,25,03,12,17.60
2017,06,25,03,13,17.60
2017,06,25,03,14,17.60
2017,06,25,03,15,17.50
2017,06,25,03,16,17.50
2017,06,25,03,17,17.40
2017,06,25,03,18,17.30
2017,06,25,03,19,17.30
2017,06,25,03,20,17.10
2017,06,25,03,21,17.00
2017,06,25,03,22,16.90
2017,06,25,03,23,16.80
2017,06,25,03,24,16.70
2017,06,25,03,25,16.60
2017,06,25,03,26,16.60
2017,06,25,03,27,16.60
2017,06,25,03,28,16.60
2017,06,25,03,29,16.60
2017,06,25,03,30,16.60
2017,06,25,03,31,16.60
2017,06,25,03,32,16.60
2017,06,25,03,33,16.60
2017,06,25,03,34,16.60
2017,06,25,03,35,16.60
2017,06,25,03,36,16.60
2017,06,25,03,37,16.60
2017,06,25,03,38,16.60
2017,06,25,03,39,16.60
2017,06,25,03,40,16.60
2017,06,25,03,41,16.60
2017,06,25,03,42,16.60
2017,06,25,03,43,16.70
2017,06,25,03,44,16.70
2017,06,25,03,45,16.70
2017,06,25,03,46,16.70
2017,06,25,03,47,16.70
2017,06,25,03,48,16.70
2017,06,25,03,49,16.70
2017,06,25,03,50,16.70
2017,06,25,03,51,16.70
2017,06,25,03,52,16.60
2017,06,25,03,53,16.60
2017,06,25,03,54,16.50
2017,06,25,03,55,16.50
2017,06,25,03,56,16.50
2017,06,25,03,57,16.40
2017,06,25,03,58,16.40
2017,06,25,03,59,16.50
2017,06,25,04,00,16.50
2017,06,25,04,01,16.60
2017,06,25,04,02,16.60
2017,06,25,04,03,16.50
2017,06,25,04,04,16.40
2017,06,25,04,05,16.30
2017,06,25,04,06,16.20
2017,06,25,04,07,16.10
2017,06,25,04,08,15.90
2017,06,25,04,09,15.90
2017,06,25,04,10,15.80
2017,06,25,04,11,15.80
2017,06,25,04,12,15.90
2017,06,25,04,13,15.90
2017,06,25,04,14,16.00
2017,06,25,04,15,16.00
2017,06,25,04,16,16.10
2017,06,25,04,17,16.20
2017,06,25,04,18,16.20
2017,06,25,04,19,16.20
2017,06,25,04,20,16.30
2017,06,25,04,21,16.30
2017,06,25,04,22,16.40
2017,06,25,04,23,16.50
2017,06,25,04,24,16.50
2017,06,25,04,25,16.50
2017,06,25,04,26,16.50
2017,06,25,04,27,16.40
2017,06,25,04,28,16.50
2017,06,25,04,29,16.50
2017,06,25,04,30,16.60
2017,06,25,04,31,16.60
2017,06,25,04,32,16.70
2017,06,25,04,33,16.70
2017,06,25,04,34,16.80
2017,06,25,04,35,16.80
2017,06,25,04,36,16.90
2017,06,25,04,37,16.90
2017,06,25,04,38,16.90
2017,06,25,04,39,16.80
2017,06,25,04,40,16.70
2017,06,25,04,41,16.60
2017,06,25,04,42,16.50
2017,06,25,04,43,16.40
2017,06,25,04,44,16.40
2017,06,25,04,45,16.30
2017,06,25,04,46,16.40
2017,06,25,04,47,16.50
2017,06,25,04,48,16.50
2017,06,25,04,49,16.50
2017,06,25,04,50,16.50
2017,06,25,04,51,16.60
2017,06,25,04,52,16.60
2017,06,25,04,53,16.60
2017,06,25,04,54,16.60
2017,06,25,04,55,16.70
2017,06,25,04,56,16.70
2017,06,25,04,57,16.70
2017,06,25,04,58,16.70
2017,06,25,04,59,16.70
2017,06,25,05,00,16.60
2017,06,25,05,01,16.60
2017,06,25,05,02,16.50
2017,06,25,05,03,16.50
2017,06,25,05,04,16.40
2017,06,25,05,05,16.30
2017,06,25,05,06,16.30
2017,06,25,05,07,16.20
2017,06,25,05,08,16.20
2017,06,25,05,09,16.20
2017,06,25,05,10,16.10
2017,06,25,05,11,16.10
2017,06,25,05,12,16.10
2017,06,25,05,13,16.10
2017,06,25,05,14,16.10
2017,06,25,05,15,16.10
2017,06,25,05,16,16.10
2017,06,25,05,17,16.10
2017,06,25,05,18,16.20
2017,06,25,05,19,16.20
2017,06,25,05,20,16.30
2017,06,25,05,21,16.30
2017,06,25,05,22,16.30
2017,06,25,05,23,16.30
2017,06,25,05,24,16.20
2017,06,25,05,25,16.20
2017,06,25,05,26,16.20
2017,06,25,05,27,16.20
2017,06,25,05,28,16.20
2017,06,25,05,29,16.20
2017,06,25,05,30,16.20
2017,06,25,05,31,16.20
2017,06,25,05,32,16.20
2017,06,25,05,33,16.20
2017,06,25,05,34,16.20
2017,06,25,05,35,16.10
2017,06,25,05,36,16.10
2017,06,25,05,37,16.00
2017,06,25,05,38,16.00
2017,06,25,05,39,15.90
2017,06,25,05,40,15.90
2017,06,25,05,41,15.90
2017,06,25,05,42,15.90
2017,06,25,05,43,15.90
2017,06,25,05,44,15.90
2017,06,25,05,45,15.80
2017,06,25,05,46,15.80
2017,06,25,05,47,15.80
2017,06,25,05,48,15.80
2017,06,25,05,49,15.80
2017,06,25,05,50,15.80
2017,06,25,05,51,15.90
2017,06,25,05,52,15.90
2017,06,25,05,53,15.90
2017,06,25,05,54,16.00
2017,06,25,05,55,16.00
2017,06,25,05,56,16.10
2017,06,25,05,57,16.10
2017,06,25,05,58,16.10
2017,06,25,05,59,16.10
2017,06,25,06,00,16.10
2017,06,25,06,01,16.10
2017,06,25,06,02,16.10
2017,06,25,06,03,16.10
2017,06,25,06,04,16.10
2017,06,25,06,05,16.10
2017,06,25,06,06,16.20
2017,06,25,06,07,16.20
2017,06,25,06,08,16.20
2017,06,25,06,09,16.30
2017,06,25,06,10,16.30
2017,06,25,06,11,16.30
2017,06,25,06,12,16.30
2017,06,25,06,13,16.30
2017,06,25,06,14,16.40
2017,06,25,06,15,16.40
2017,06,25,06,16,16.40
2017,06,25,06,17,16.40
2017,06,25,06,18,16.50
2017,06,25,06,19,16.50
2017,06,25,06,20,16.50
2017,06,25,06,21,16.60
2017,06,25,06,22,16.60
2017,06,25,06,23,16.60
2017,06,25,06,24,16.70
2017,06,25,06,25,16.70
2017,06,25,06,26,16.80
2017,06,25,06,27,16.80
2017,06,25,06,28,16.90
2017,06,25,06,29,17.00
2017,06,25,06,30,17.00
2017,06,25,06,31,17.10
2017,06,25,06,32,17.10
2017,06,25,06,33,17.20
2017,06,25,06,34,17.20
2017,06,25,06,35,17.30
2017,06,25,06,36,17.30
2017,06,25,06,37,17.40
2017,06,25,06,38,17.50
2017,06,25,06,39,17.50
2017,06,25,06,40,17.60
2017,06,25,06,41,17.70
2017,06,25,06,42,17.70
2017,06,25,06,43,17.80
2017,06,25,06,44,17.90
2017,06,25,06,45,17.90
2017,06,25,06,46,18.00
2017,06,25,06,47,18.10
2017,06,25,06,48,18.10
2017,06,25,06,49,18.20
2017,06,25,06,50,18.20
2017,06,25,06,51,18.30
2017,06,25,06,52,18.30
2017,06,25,06,53,18.40
2017,06,25,06,54,18.40
2017,06,25,06,55,18.40
2017,06,25,06,56,18.40
2017,06,25,06,57,18.40
2017,06,25,06,58,18.40
2017,06,25,06,59,18.40
2017,06,25,07,00,18.40
2017,06,25,07,01,18.30
2017,06,25,07,02,18.30
2017,06,25,07,03,18.20
2017,06,25,07,04,18.20
2017,06,25,07,05,18.10
2017,06,25,07,06,18.10
2017,06,25,07,07,18.10
2017,06,25,07,08,18.10
2017,06,25,07,09,18.00
2017,06,25,07,10,18.00
2017,06,25,07,11,18.00
2017,06,25,07,12,18.10
2017,06,25,07,13,18.00
2017,06,25,07,14,18.00
2017,06,25,07,15,18.10
2017,06,25,07,16,18.10
2017,06,25,07,17,18.20
2017,06,25,07,18,18.30
2017,06,25,07,19,18.50
2017,06,25,07,20,18.60
2017,06,25,07,21,18.70
2017,06,25,07,22,18.80
2017,06,25,07,23,18.90
2017,06,25,07,24,19.00
2017,06,25,07,25,19.10
2017,06,25,07,26,19.20
2017,06,25,07,27,19.30
2017,06,25,07,28,19.30
2017,06,25,07,29,19.40
2017,06,25,07,30,19.50
2017,06,25,07,31,19.50
2017,06,25,07,32,19.60
2017,06,25,07,33,19.70
2017,06,25,07,34,19.80
2017,06,25,07,35,19.90
2017,06,25,07,36,20.00
2017,06,25,07,37,20.10
2017,06,25,07,38,20.20
2017,06,25,07,39,20.30
2017,06,25,07,40,20.40
2017,06,25,07,41,20.40
2017,06,25,07,42,20.40
2017,06,25,07,43,20.50
2017,06,25,07,44,20.50
2017,06,25,07,45,20.50
2017,06,25,07,46,20.50
2017,06,25,07,47,20.60
2017,06,25,07,48,20.60
2017,06,25,07,49,20.60
2017,06,25,07,50,20.70
2017,06,25,07,51,20.70
2017,06,25,07,52,20.80
2017,06,25,07,53,20.90
2017,06,25,07,54,21.00
2017,06,25,07,55,21.10
2017,06,25,07,56,21.20
2017,06,25,07,57,21.40
2017,06,25,07,58,21.50
2017,06,25,07,59,21.50
2017,06,25,08,00,21.60
2017,06,25,08,01,21.70
2017,06,25,08,02,21.60
2017,06,25,08,03,21.60
2017,06,25,08,04,21.60
2017,06,25,08,05,21.60
2017,06,25,08,06,21.60
2017,06,25,08,07,21.60
2017,06,25,08,08,21.60
2017,06,25,08,09,21.60
2017,06,25,08,10,21.60
2017,06,25,08,11,21.70
2017,06,25,08,12,21.70
2017,06,25,08,13,21.80
2017,06,25,08,14,21.80
2017,06,25,08,15,21.80
2017,06,25,08,16,21.90
2017,06,25,08,17,22.00
2017,06,25,08,18,22.00
2017,06,25,08,19,22.00
2017,06,25,08,20,22.10
2017,06,25,08,21,22.10
2017,06,25,08,22,22.10
2017,06,25,08,23,22.20
2017,06,25,08,24,22.30
2017,06,25,08,25,22.40
2017,06,25,08,26,22.50
2017,06,25,08,27,22.60
2017,06,25,08,28,22.70
2017,06,25,08,29,22.80
2017,06,25,08,30,22.90
2017,06,25,08,31,23.10
2017,06,25,08,32,23.20
2017,06,25,08,33,23.30
2017,06,25,08,34,23.40
2017,06,25,08,35,23.40
2017,06,25,08,36,23.30
2017,06,25,08,37,23.20
2017,06,25,08,38,23.10
2017,06,25,08,39,23.00
2017,06,25,08,40,22.90
2017,06,25,08,41,22.80
2017,06,25,08,42,22.70
2017,06,25,08,43,22.60
2017,06,25,08,44,22.60
2017,06,25,08,45,22.50
2017,06,25,08,46,22.50
2017,06,25,08,47,22.40
2017,06,25,08,48,22.40
2017,06,25,08,49,22.50
2017,06,25,08,50,22.60
2017,06,25,08,51,22.60
2017,06,25,08,52,22.60
2017,06,25,08,53,22.60
2017,06,25,08,54,22.70
2017,06,25,08,55,22.70
2017,06,25,08,56,22.70
2017,06,25,08,57,22.70
2017,06,25,08,58,22.60
2017,06,25,08,59,22.50
2017,06,25,09,00,22.40
2017,06,25,09,01,22.40
2017,06,25,09,02,22.30
2017,06,25,09,03,22.30
2017,06,25,09,04,22.30
2017,06,25,09,05,22.40
2017,06,25,09,06,22.40
2017,06,25,09,07,22.50
2017,06,25,09,08,22.60
2017,06,25,09,09,22.70
2017,06,25,09,10,22.70
2017,06,25,09,11,22.80
2017,06,25,09,12,22.90
2017,06,25,09,13,22.90
2017,06,25,09,14,23.00
2017,06,25,09,15,23.10
2017,06,25,09,16,23.10
2017,06,25,09,17,23.20
2017,06,25,09,18,23.30
2017,06,25,09,19,23.30
2017,06,25,09,20,23.30
2017,06,25,09,21,23.20
2017,06,25,09,22,23.20
2017,06,25,09,23,23.20
2017,06,25,09,24,23.10
2017,06,25,09,25,23.10
2017,06,25,09,26,23.10
2017,06,25,09,27,23.20
2017,06,25,09,28,23.20
2017,06,25,09,29,23.30
2017,06,25,09,30,23.40
2017,06,25,09,31,23.40
2017,06,25,09,32,23.40
2017,06,25,09,33,23.50
2017,06,25,09,34,23.60
2017,06,25,09,35,23.80
2017,06,25,09,36,23.90
2017,06,25,09,37,24.10
2017,06,25,09,38,24.20
2017,06,25,09,39,24.30
2017,06,25,09,40,24.40
2017,06,25,09,41,24.60
2017,06,25,09,42,24.70
2017,06,25,09,43,24.80
2017,06,25,09,44,24.90
2017,06,25,09,45,25.10
2017,06,25,09,46,25.20
2017,06,25,09,47,25.30
2017,06,25,09,48,25.20
2017,06,25,09,49,25.10
2017,06,25,09,50,25.00
2017,06,25,09,51,25.00
2017,06,25,09,52,24.90
2017,06,25,09,53,24.90
2017,06,25,09,54,24.80
2017,06,25,09,55,24.80
2017,06,25,09,56,24.70
2017,06,25,09,57,24.60
2017,06,25,09,58,24.60
2017,06,25,09,59,24.50
2017,06,25,10,00,24.50
2017,06,25,10,01,24.60
2017,06,25,10,02,24.60
2017,06,25,10,03,24.60
2017,06,25,10,04,24.50
2017,06,25,10,05,24.60
2017,06,25,10,06,24.60
2017,06,25,10,07,24.70
2017,06,25,10,08,24.80
2017,06,25,10,09,24.90
2017,06,25,10,10,25.10
2017,06,25,10,11,25.20
2017,06,25,10,12,25.30
2017,06,25,10,13,25.40
2017,06,25,10,14,25.50
2017,06,25,10,15,25.50
2017,06,25,10,16,25.70
2017,06,25,10,17,25.90
2017,06,25,10,18,25.90
2017,06,25,10,19,26.00
2017,06,25,10,20,25.90
2017,06,25,10,21,25.90
2017,06,25,10,22,25.90
2017,06,25,10,23,25.80
2017,06,25,10,24,25.80
2017,06,25,10,25,25.80
2017,06,25,10,26,25.80
2017,06,25,10,27,25.80
2017,06,25,10,28,25.70
2017,06,25,10,29,25.60
2017,06,25,10,30,25.60
2017,06,25,10,31,25.50
2017,06,25,10,32,25.40
2017,06,25,10,33,25.50
2017,06,25,10,34,25.60
2017,06,25,10,35,25.60
2017,06,25,10,36,25.70
2017,06,25,10,37,25.90
2017,06,25,10,38,25.90
2017,06,25,10,39,26.00
2017,06,25,10,40,26.00
2017,06,25,10,41,26.10
2017,06,25,10,42,26.10
2017,06,25,10,43,26.10
2017,06,25,10,44,26.10
2017,06,25,10,45,26.10
2017,06,25,10,46,26.10
2017,06,25,10,47,26.20
2017,06,25,10,48,26.20
2017,06,25,10,49,26.20
2017,06,25,10,50,26.20
2017,06,25,10,51,26.10
2017,06,25,10,52,26.00
2017,06,25,10,53,26.00
2017,06,25,10,54,26.10
2017,06,25,10,55,26.20
2017,06,25,10,56,26.10
2017,06,25,10,57,26.10
2017,06,25,10,58,26.10
2017,06,25,10,59,26.10
2017,06,25,11,00,26.20
2017,06,25,11,01,26.30
2017,06,25,11,02,26.30
2017,06,25,11,03,26.40
2017,06,25,11,04,26.40
2017,06,25,11,05,26.50
2017,06,25,11,06,26.60
2017,06,25,11,07,26.60
2017,06,25,11,08,26.50
2017,06,25,11,09,26.50
2017,06,25,11,10,26.50
2017,06,25,11,11,26.50
2017,06,25,11,12,26.50
2017,06,25,11,13,26.50
2017,06,25,11,14,26.60
2017,06,25,11,15,26.70
2017,06,25,11,16,26.70
2017,06,25,11,17,26.70
2017,06,25,11,18,26.60
2017,06,25,11,19,26.70
2017,06,25,11,20,26.70
2017,06,25,11,21,26.70
2017,06,25,11,22,26.60
2017,06,25,11,23,26.50
2017,06,25,11,24,26.60
2017,06,25,11,25,26.50
2017,06,25,11,26,26.40
2017,06,25,11,27,26.30
2017,06,25,11,28,26.30
2017,06,25,11,29,26.40
2017,06,25,11,30,26.40
2017,06,25,11,31,26.40
2017,06,25,11,32,26.40
2017,06,25,11,33,26.30
2017,06,25,11,34,26.30
2017,06,25,11,35,26.20
2017,06,25,11,36,26.10
2017,06,25,11,37,26.10
2017,06,25,11,38,26.10
2017,06,25,11,39,26.20
2017,06,25,11,40,26.30
2017,06,25,11,41,26.40
2017,06,25,11,42,26.50
2017,06,25,11,43,26.60
2017,06,25,11,44,26.60
2017,06,25,11,45,26.70
2017,06,25,11,46,26.70
2017,06,25,11,47,26.70
2017,06,25,11,48,26.70
2017,06,25,11,49,26.70
2017,06,25,11,50,26.80
2017,06,25,11,51,26.90
2017,06,25,11,52,27.00
2017,06,25,11,53,27.20
2017,06,25,11,54,27.20
2017,06,25,11,55,27.20
2017,06,25,11,56,27.10
2017,06,25,11,57,27.10
2017,06,25,11,58,27.00
2017,06,25,11,59,26.90
2017,06,25,12,00,26.90
2017,06,25,12,01,26.90
2017,06,25,12,02,26.90
2017,06,25,12,03,26.90
2017,06,25,12,04,27.00
2017,06,25,12,05,27.00
2017,06,25,12,06,27.20
2017,06,25,12,07,27.30
2017,06,25,12,08,27.40
2017,06,25,12,09,27.50
2017,06,25,12,10,27.50
2017,06,25,12,11,27.50
2017,06,25,12,12,27.50
2017,06,25,12,13,27.40
2017,06,25,12,14,27.30
2017,06,25,12,15,27.40
2017,06,25,12,16,27.40
2017,06,25,12,17,27.50
2017,06,25,12,18,27.60
2017,06,25,12,19,27.60
2017,06,25,12,20,27.50
2017,06,25,12,21,27.40
2017,06,25,12,22,27.40
2017,06,25,12,23,27.30
2017,06,25,12,24,27.30
2017,06,25,12,25,27.30
2017,06,25,12,26,27.30
2017,06,25,12,27,27.30
2017,06,25,12,28,27.40
2017,06,25,12,29,27.40
2017,06,25,12,30,27.50
2017,06,25,12,31,27.50
2017,06,25,12,32,27.50
2017,06,25,12,33,27.40
2017,06,25,12,34,27.50
2017,06,25,12,35,27.60
2017,06,25,12,36,27.70
2017,06,25,12,37,27.70
2017,06,25,12,38,27.70
2017,06,25,12,39,27.80
2017,06,25,12,40,27.70
2017,06,25,12,41,27.70
2017,06,25,12,42,27.60
2017,06,25,12,43,27.60
2017,06,25,12,44,27.60
2017,06,25,12,45,27.70
2017,06,25,12,46,27.80
2017,06,25,12,47,27.90
2017,06,25,12,48,27.90
2017,06,25,12,49,27.90
2017,06,25,12,50,27.90
2017,06,25,12,51,27.80
2017,06,25,12,52,27.80
2017,06,25,12,53,27.80
2017,06,25,12,54,27.80
2017,06,25,12,55,27.70
2017,06,25,12,56,27.70
2017,06,25,12,57,27.70
2017,06,25,12,58,27.80
2017,06,25,12,59,27.70
2017,06,25,13,00,27.60
2017,06,25,13,01,27.60
2017,06,25,13,02,27.60
2017,06,25,13,03,27.50
2017,06,25,13,04,27.40
2017,06,25,13,05,27.40
2017,06,25,13,06,27.50
2017,06,25,13,07,27.50
2017,06,25,13,08,27.60
2017,06,25,13,09,27.80
2017,06,25,13,10,28.00
2017,06,25,13,11,28.00
2017,06,25,13,12,28.00
2017,06,25,13,13,27.90
2017,06,25,13,14,28.00
2017,06,25,13,15,28.10
2017,06,25,13,16,28.00
2017,06,25,13,17,28.10
2017,06,25,13,18,28.10
2017,06,25,13,19,28.10
2017,06,25,13,20,28.00
2017,06,25,13,21,28.00
2017,06,25,13,22,28.00
2017,06,25,13,23,28.00
2017,06,25,13,24,28.00
2017,06,25,13,25,28.00
2017,06,25,13,26,28.10
2017,06,25,13,27,28.10
2017,06,25,13,28,28.10
2017,06,25,13,29,28.10
2017,06,25,13,30,28.10
2017,06,25,13,31,28.20
2017,06,25,13,32,28.20
2017,06,25,13,33,28.10
2017,06,25,13,34,28.10
2017,06,25,13,35,28.10
2017,06,25,13,36,28.10
2017,06,25,13,37,28.10
2017,06,25,13,38,28.10
2017,06,25,13,39,28.10
2017,06,25,13,40,28.10
2017,06,25,13,41,28.20
2017,06,25,13,42,28.20
2017,06,25,13,43,28.30
2017,06,25,13,44,28.30
2017,06,25,13,45,28.30
2017,06,25,13,46,28.30
2017,06,25,13,47,28.30
2017,06,25,13,48,28.40
2017,06,25,13,49,28.40
2017,06,25,13,50,28.50
2017,06,25,13,51,28.60
2017,06,25,13,52,28.70
2017,06,25,13,53,28.70
2017,06,25,13,54,28.70
2017,06,25,13,55,28.80
2017,06,25,13,56,28.80
2017,06,25,13,57,28.80
2017,06,25,13,58,28.80
2017,06,25,13,59,28.70
2017,06,25,14,00,28.70
2017,06,25,14,01,28.60
2017,06,25,14,02,28.50
2017,06,25,14,03,28.40
2017,06,25,14,04,28.30
2017,06,25,14,05,28.30
2017,06,25,14,06,28.20
2017,06,25,14,07,28.20
2017,06,25,14,08,28.20
2017,06,25,14,09,28.20
2017,06,25,14,10,28.20
2017,06,25,14,11,28.30
2017,06,25,14,12,28.40
2017,06,25,14,13,28.50
2017,06,25,14,14,28.60
2017,06,25,14,15,28.60
2017,06,25,14,16,28.60
2017,06,25,14,17,28.60
2017,06,25,14,18,28.50
2017,06,25,14,19,28.50
2017,06,25,14,20,28.60
2017,06,25,14,21,28.60
2017,06,25,14,22,28.60
2017,06,25,14,23,28.50
2017,06,25,14,24,28.50
2017,06,25,14,25,28.50
2017,06,25,14,26,28.50
2017,06,25,14,27,28.50
2017,06,25,14,28,28.50
2017,06,25,14,29,28.60
2017,06,25,14,30,28.60
2017,06,25,14,31,28.60
2017,06,25,14,32,28.60
2017,06,25,14,33,28.60
2017,06,25,14,34,28.60
2017,06,25,14,35,28.60
2017,06,25,14,36,28.70
2017,06,25,14,37,28.70
2017,06,25,14,38,28.70
2017,06,25,14,39,28.70
2017,06,25,14,40,28.70
2017,06,25,14,41,28.80
2017,06,25,14,42,28.80
2017,06,25,14,43,28.70
2017,06,25,14,44,28.80
2017,06,25,14,45,28.80
2017,06,25,14,46,28.80
2017,06,25,14,47,28.80
2017,06,25,14,48,28.80
2017,06,25,14,49,28.90
2017,06,25,14,50,29.00
2017,06,25,14,51,29.00
2017,06,25,14,52,29.10
2017,06,25,14,53,29.10
2017,06,25,14,54,29.20
2017,06,25,14,55,29.20
2017,06,25,14,56,29.20
2017,06,25,14,57,29.20
2017,06,25,14,58,29.20
2017,06,25,14,59,29.20
2017,06,25,15,00,29.20
2017,06,25,15,01,29.20
2017,06,25,15,02,29.20
2017,06,25,15,03,29.20
2017,06,25,15,04,29.10
2017,06,25,15,05,29.10
2017,06,25,15,06,29.00
2017,06,25,15,07,28.90
2017,06,25,15,08,28.90
2017,06,25,15,09,28.90
2017,06,25,15,10,28.90
2017,06,25,15,11,29.00
2017,06,25,15,12,29.10
2017,06,25,15,13,29.10
2017,06,25,15,14,29.20
2017,06,25,15,15,29.20
2017,06,25,15,16,29.30
2017,06,25,15,17,29.30
2017,06,25,15,18,29.40
2017,06,25,15,19,29.50
2017,06,25,15,20,29.60
2017,06,25,15,21,29.60
2017,06,25,15,22,29.60
2017,06,25,15,23,29.50
2017,06,25,15,24,29.50
2017,06,25,15,25,29.50
2017,06,25,15,26,29.50
2017,06,25,15,27,29.50
2017,06,25,15,28,29.60
2017,06,25,15,29,29.60
2017,06,25,15,30,29.60
2017,06,25,15,31,29.60
2017,06,25,15,32,29.60
2017,06,25,15,33,29.60
2017,06,25,15,34,29.60
2017,06,25,15,35,29.60
2017,06,25,15,36,29.70
2017,06,25,15,37,29.70
2017,06,25,15,38,29.70
2017,06,25,15,39,29.60
2017,06,25,15,40,29.60
2017,06,25,15,41,29.50
2017,06,25,15,42,29.50
2017,06,25,15,43,29.50
2017,06,25,15,44,29.40
2017,06,25,15,45,29.50
2017,06,25,15,46,29.50
2017,06,25,15,47,29.50
2017,06,25,15,48,29.40
2017,06,25,15,49,29.40
2017,06,25,15,50,29.40
2017,06,25,15,51,29.30
2017,06,25,15,52,29.30
2017,06,25,15,53,29.30
2017,06,25,15,54,29.30
2017,06,25,15,55,29.30
2017,06,25,15,56,29.30
2017,06,25,15,57,29.40
2017,06,25,15,58,29.40
2017,06,25,15,59,29.50
2017,06,25,16,00,29.60
2017,06,25,16,01,29.70
2017,06,25,16,02,29.70
2017,06,25,16,03,29.80
2017,06,25,16,04,29.70
2017,06,25,16,05,29.80
2017,06,25,16,06,29.70
2017,06,25,16,07,29.80
2017,06,25,16,08,29.80
2017,06,25,16,09,29.80
2017,06,25,16,10,29.70
2017,06,25,16,11,29.80
2017,06,25,16,12,29.80
2017,06,25,16,13,29.80
2017,06,25,16,14,29.90
2017,06,25,16,15,29.90
2017,06,25,16,16,29.90
2017,06,25,16,17,29.90
2017,06,25,16,18,30.00
2017,06,25,16,19,30.00
2017,06,25,16,20,30.00
2017,06,25,16,21,30.00
2017,06,25,16,22,30.10
2017,06,25,16,23,30.00
2017,06,25,16,24,30.00
2017,06,25,16,25,30.00
2017,06,25,16,26,30.10
2017,06,25,16,27,30.10
2017,06,25,16,28,30.10
2017,06,25,16,29,30.20
2017,06,25,16,30,30.20
2017,06,25,16,31,30.20
2017,06,25,16,32,30.20
2017,06,25,16,33,30.30
2017,06,25,16,34,30.30
2017,06,25,16,35,30.50
2017,06,25,16,36,30.60
2017,06,25,16,37,30.60
2017,06,25,16,38,30.70
2017,06,25,16,39,30.80
2017,06,25,16,40,30.90
2017,06,25,16,41,30.90
2017,06,25,16,42,30.90
2017,06,25,16,43,30.90
2017,06,25,16,44,30.90
2017,06,25,16,45,31.00
2017,06,25,16,46,31.00
2017,06,25,16,47,31.10
2017,06,25,16,48,31.10
2017,06,25,16,49,31.10
2017,06,25,16,50,31.10
2017,06,25,16,51,31.10
2017,06,25,16,52,31.10
2017,06,25,16,53,31.10
2017,06,25,16,54,31.10
2017,06,25,16,55,31.10
2017,06,25,16,56,31.10
2017,06,25,16,57,31.20
2017,06,25,16,58,31.30
2017,06,25,16,59,31.40
2017,06,25,17,00,31.40
2017,06,25,17,01,31.50
2017,06,25,17,02,31.60
2017,06,25,17,03,31.60
2017,06,25,17,04,31.60
2017,06,25,17,05,31.50
2017,06,25,17,06,31.40
2017,06,25,17,07,31.20
2017,06,25,17,08,31.10
2017,06,25,17,09,31.00
2017,06,25,17,10,30.90
2017,06,25,17,11,30.80
2017,06,25,17,12,30.70
2017,06,25,17,13,30.60
2017,06,25,17,14,30.40
2017,06,25,17,15,30.30
2017,06,25,17,16,30.30
2017,06,25,17,17,30.30
2017,06,25,17,18,30.30
2017,06,25,17,19,30.40